Weather Roundup
Issued by NWS Springfield, MO

Home | Current Version | Previous Version | Text Only | Print | Product List | Glossary On
Versions: 1 2 3 4 5 6 7 8 9 10 11 12 13 14 15 16 17 18 19 20 21 22 23 24 25 26 27 28 29 30 31 32 33 34 35 36 37 38 39 40 41 42 43 44 45 46 47 48 49 50
000
NZUS99 KSGF 210759
HRRSGF

HOURLY WEATHER
NATIONAL WEATHER SERVICE SPRINGFIELD MO
300 AM CDT SUN SEP 21 2014

......SGF CWA......

CITY           SKY/WX    TMP DP  RH WIND       PRES   REMARKS
SPRINGFIELD    MOCLDY    72  67  84 SW3       30.03S
JOPLIN         CLOUDY    73  67  81 SW7       30.03S
WEST PLAINS    CLEAR     69  66  90 W6        30.03F
ROLLA          CLOUDY    71  67  87 SW6       29.97S
OSAGE BEACH    CLOUDY    73  68  83 W9        29.99S

......SURROUNDING SGF CWA......

CITY           SKY/WX    TMP DP  RH WIND       PRES   REMARKS
CHANUTE        CLOUDY    75  70  84 W3        30.04S
PARSONS        CLOUDY    73  70  90 N3        30.05R
EMPORIA        PTCLDY    65  64  97 NW7       30.08R
GROVE OK       MOCLDY    70  70 100 CALM      30.04F
SILOAM SPRINGS MOCLDY    68  63  83 S3        30.07S
HARRISON AR    CLEAR     66  65  96 CALM      30.05F
NEAR YELLVILLE CLEAR     72  63  73 SW3       30.02F

......KANSAS AND MISSOURI......

CITY           SKY/WX    TMP DP  RH WIND       PRES   REMARKS
KANSAS CTY INT CLEAR     64  56  75 N12       30.06R
DOWNTOWN KC    CLEAR     69  58  67 VRB7      30.05R
COLUMBIA       CLEAR     70  69  97 W7        29.95F
SEDALIA        CLEAR     71  68  90 W6        29.98S
ST JOSEPH      CLEAR     60  53  77 N5        30.07R
ST LOUIS       PTCLDY    74  68  81 W9        29.90F
SPIRIT OF STL  PTCLDY    72  69  90 W8        29.90S
KIRKSVILLE     CLEAR     61  51  70 N8        30.01R
WICHITA        MOCLDY    75  68  78 NE5       30.06S
TOPEKA         CLEAR     67  60  78 N10       30.07R
OLATHE         CLEAR     69  64  84 N14       30.05R

......TENNESSEE......

CITY           SKY/WX    TMP DP  RH WIND       PRES   REMARKS
MEMPHIS        CLEAR     73  66  78 CALM      30.00F
NASHVILLE      PTCLDY    67  64  90 S3        29.97F

......ARKANSAS.......

CITY           SKY/WX    TMP DP  RH WIND       PRES   REMARKS
FAYETTEVILLE   PTCLDY    65  65 100 S6        30.06F
FT SMITH       CLEAR     72  69  90 CALM      30.03R
LITTLE ROCK    CLEAR     71  67  87 W3        30.01S

......OKLAHOMA.......

CITY           SKY/WX    TMP DP  RH WIND       PRES   REMARKS
TULSA          MOCLDY    77  67  71 SW5       30.02S
PONCA CITY     CLOUDY    75  67  76 CALM      30.04R
MCALESTER      PTCLDY    67  65  93 CALM      30.04F FOG
OKLAHOMA CITY  PTCLDY    71  65  81 SE5       30.06S

......IOWA............

CITY           SKY/WX    TMP DP  RH WIND       PRES   REMARKS
DES MOINES     CLEAR     57  51  80 W6        30.00S
QUAD CITIES    CLEAR     59  52  77 W9        29.90S

......ILLINOIS........

CITY           SKY/WX    TMP DP  RH WIND       PRES   REMARKS
QUINCY         PTCLDY    65  59  81 NW18      29.94R
CHICAGO        MOCLDY    65  57  75 NW21G28   29.74R




USA.gov is the U.S. government's official web portal to all federal, state and local government web resources and services.